Regional Weather Roundup
Issued by NWS Portland, ME

Home | Current Version | Previous Version | Text Only | Print | Product List | Glossary On
Versions: 1 2 3 4 5 6 7 8 9 10 11 12 13 14 15 16 17 18 19 20 21 22 23 24 25 26 27 28 29 30 31 32 33 34 35 36 37 38 39 40 41 42 43 44 45 46 47 48 49 50
000
ASUS41 KGYX 282010
RWRGYX
WEATHER ROUNDUP FOR MAINE AND NEW HAMPSHIRE
NATIONAL WEATHER SERVICE GRAY ME
400 PM EDT WED JUN 28 2017

MEZ002-005-006-010-012-015-018-020-021-024-026-027-029-282100-
MAINE

CITY           SKY/WX    TMP DP  RH WIND       PRES   REMARKS
PORTLAND       MOSUNNY   74  52  46 VRB7      29.98F
SANFORD        SUNNY     75  48  38 W14       30.00S
BAR HARBOR     CLOUDY    65  55  70 S14       29.96R
WISCASSET      MOSUNNY   70  56  61 SW5       29.99R
ROCKLAND       LGT RAIN  64  57  78 SW6       29.97R
FRYEBURG       PTSUNNY   71  46  40 W12G23    29.99S
LEWISTONAUBURN PTSUNNY   71  51  49 W13       29.98S
AUGUSTA        MOSUNNY   70  52  52 VRB7      29.96F
WATERVILLE     MOSUNNY   71  52  50 VRB5      29.93S
BANGOR         CLOUDY    65  53  65 S6        29.96R
GREENVILLE       N/A     61  53  75 MISG      29.93F
MILLINOCKET    CLOUDY    66  52  60 W7        29.92R
HOULTON        CLOUDY    69  54  58 W13G24    29.87R
PRESQUE ISLE   CLOUDY    64  56  75 SW8       29.89R
FRENCHVILLE    LGT RAIN  59  52  77 SW10      29.87R
CARIBOU        CLOUDY    67  55  65 W7        29.86R
$$

NHZ002-005-008-009-011-012-014-282100-
NEW HAMPSHIRE

CITY           SKY/WX    TMP DP  RH WIND       PRES   REMARKS
PORTSMOUTH     MOSUNNY   77  47  34 W15       29.99F
ROCHESTER      PTSUNNY   75  46  35 W9G17     29.99F
NASHUA         PTSUNNY   75  47  36 NW12G18   30.03S
MANCHESTER     PTSUNNY   75  43  31 W8        30.01S
CONCORD        MOSUNNY   74  51  44 N8        30.02S
LACONIA        MOSUNNY  N/A N/A N/A W9        30.03R
PLYMOUTH       CLOUDY    63  55  76 CALM      30.03R
BERLIN         LGT RAIN  63  50  62 NW10G16   30.01R
WHITEFIELD     PTSUNNY   67  50  54 W10G20    30.02S
JAFFREY        NOT AVBL
KEENE          MOSUNNY   72  50  45 VRB3      30.03F
LEBANON        PTSUNNY   70  53  54 NW6       30.02F
MT WASHINGTON  SHOWER    39  39 100 W49G58      N/A  VSB 0
$$

VTZ005-007-008-282100-
VERMONT

CITY           SKY/WX    TMP DP  RH WIND       PRES   REMARKS
ST JOHNSBURY     N/A     66  56  70 MISG      29.99F
MONTPELIER     MOSUNNY   64  52  64 W8        30.05F
BURLINGTON     PTSUNNY   75  51  43 NW8       29.99F
$$

MAZ007-012-024-CTZ003-RIZ002-NYZ038-NYZ072-282100-
SOUTHERN NEW ENGLAND AND NY

CITY           SKY/WX    TMP DP  RH WIND       PRES   REMARKS
BOSTON         MOSUNNY   77  47  34 W15G22    30.03S
WORCESTER      MOSUNNY   71  44  37 W12G21    30.06
NANTUCKET      SUNNY     68  59  73 SW18      30.09R
PROVIDENCE     MOSUNNY   77  47  34 NW10G21   30.06S
HARTFORD       MOSUNNY   78  48  34 W8G18     30.05F
ALBANY         MOSUNNY   76  48  37 W16G25    30.05F
NEW YORK CITY  MOSUNNY   79  49  34 NW14G20   30.09S
$$

ANZ081-ANZ082-ANZ150-NHZ014-MEZ023>029-282100-
COASTAL MARINE OBSERVATIONS

STATION/POSITION TIME  TEMP    WIND        PRES    WAVE
                       AIR SEA DIR/SP/G            HT/PER
                 (UTC) (F)     (DEG/KT/KT) (MB)    (FT/S)
MATINICUS ROCK   1900   56     210/ 19/ 19 1014.6R
ISLE OF SHOALS   1900   69     250/ 14/ 15 1015.8R
JEFFREYS LEDGE   1906      58                N/A     1/ 7
CASHES LEDGE BUO 1950   65 62              1015.7F   2/ 5
GEORGES BANK BUO 1850   57 56              1017.7    2/ 8
$$

.............KEY..............
   WCI - WIND CHILL
   TC  - TEMPERATURE IN CELSIUS
   VSB - VISIBILITY IN MILES
   HX  - HEAT INDEX
   FAIR- INDICATES FEW OR NO CLOUDS BELOW 12,000 FT, WITH NO
         SIGNIFICANT WEATHER AND/OR OBSTRUCTIONS TO VISIBILITY.






USA.gov is the U.S. government's official web portal to all federal, state and local government web resources and services.